EW7175 Weather Reports


Display with metric or nautical units.
time (UTC)temp
F
wind
direction
speed
MPH
gust
MPH
rain 1hr
in
rain 24hr
in
rain mn
in
humidity
%
barometer
mb
20260905113024 77 168 0.0 0.0 0.00 0.11 0.00 96 1011.3
20260905111521 77 168 0.0 0.0 0.00 0.11 0.00 96 1011.2
20260905110018 77 168 0.0 0.0 0.00 0.11 0.00 95 1011.0
20260905104513 77 168 0.0 0.0 0.00 0.11 0.00 96 1010.9
20260905103028 77 168 0.0 0.0 0.00 0.11 0.00 96 1011.0
20260905101515 77 168 0.0 0.0 0.00 0.11 0.00 95 1010.9
20260905100012 77 168 0.0 0.0 0.00 0.11 0.00 95 1010.8
20260905094511 77 168 0.0 0.0 0.00 0.11 0.00 95 1010.8
20260905093012 77 168 0.0 0.0 0.00 0.11 0.00 95 1010.9
20260905091510 77 168 0.0 0.0 0.00 0.11 0.00 95 1010.8
20260905090009 77 168 0.0 0.0 0.00 0.11 0.00 95 1010.8
20260905084514 78 168 0.0 0.0 0.00 0.11 0.00 95 1010.7
20260905083007 78 168 0.0 0.0 0.00 0.11 0.00 95 1010.7
20260905081505 78 168 0.0 0.0 0.00 0.11 0.00 94 1010.8
20260905080005 78 168 0.0 0.0 0.00 0.11 0.00 94 1010.8
20260905074506 78 168 0.0 0.0 0.00 0.11 0.00 94 1010.8
20260905073108 78 168 0.0 0.0 0.00 0.11 0.00 94 1011.0
20260905071558 78 168 0.0 0.0 0.00 0.11 0.00 93 1011.1
20260905070057 78 168 0.0 0.0 0.00 0.11 0.00 93 1011.3
20260905064610 79 168 0.0 0.0 0.00 0.11 0.00 93 1011.3
20260905063059 79 168 0.0 0.0 0.00 0.11 0.00 93 1011.4
20260905061614 79 168 0.0 0.0 0.00 0.11 0.00 92 1011.4
20260905060054 79 168 0.0 0.0 0.00 0.11 0.00 91 1011.4
20260905054600 79 168 0.0 0.0 0.00 0.11 0.00 91 1011.4
20260905053050 80 168 0.0 0.0 0.00 0.11 0.00 90 1011.5
20260905051604 80 168 0.0 0.0 0.00 0.11 0.00 90 1011.5
20260905050041 80 168 0.0 0.0 0.00 0.11 0.00 90 1011.6
20260905044552 80 168 0.0 0.0 0.00 0.11 0.11 89 1011.5
20260905043042 80 168 0.0 0.0 0.00 0.11 0.11 89 1011.5
20260905041540 80 167 0.0 0.0 0.00 0.11 0.11 88 1011.5
20260905040048 80 167 0.0 0.0 0.00 0.11 0.11 87 1011.6
20260905034556 80 167 0.0 0.0 0.00 0.11 0.11 86 1011.7
20260905033058 80 167 0.0 0.0 0.00 0.11 0.11 85 1011.7
20260905031539 80 167 0.0 0.0 0.00 0.11 0.11 84 1011.9
20260905030038 80 167 0.0 0.0 0.00 0.11 0.11 84 1011.8
20260905024538 81 167 0.0 0.0 0.00 0.11 0.11 83 1011.7
20260905023115 81 167 0.0 0.0 0.00 0.11 0.11 81 1011.5
20260905021537 81 167 0.0 0.0 0.00 0.11 0.11 80 1011.4
20260905020036 81 167 0.0 0.0 0.00 0.11 0.11 79 1011.1
20260905014538 82 167 0.0 0.0 0.00 0.11 0.11 78 1011.0
20260905013035 82 167 0.0 0.0 0.00 0.11 0.11 77 1010.8
20260905011535 83 150 0.0 0.0 0.00 0.11 0.11 75 1010.9
20260905010041 85 150 0.0 0.0 0.00 0.11 0.11 74 1010.8
20260905004534 87 11 0.0 0.0 0.00 0.11 0.11 72 1010.6
20260905003034 88 11 0.0 0.0 0.00 0.11 0.11 70 1010.5
20260905001534 89 18 0.0 0.0 0.00 0.11 0.11 68 1010.2
20260905000033 90 64 0.0 0.0 0.00 0.11 0.11 67 1010.2
20260904234535 90 64 0.0 0.0 0.00 0.11 0.11 68 1010.2
20260904233032 90 34 0.0 0.0 0.00 0.11 0.11 69 1010.3
20260904231531 90 32 1.0 7.0 0.00 0.11 0.11 67 1010.3
20260904230030 90 79 0.0 3.0 0.01 0.11 0.11 68 1010.2
20260904224530 90 79 1.0 4.0 0.01 0.11 0.11 65 1010.1
20260904223028 92 103 1.0 3.0 0.01 0.11 0.11 64 1010.3
20260904221526 94 56 0.0 0.0 0.01 0.11 0.11 60 1010.3
20260904220028 94 20 0.0 0.0 0.00 0.10 0.10 60 1010.5
20260904214518 92 268 0.0 0.0 0.00 0.10 0.10 61 1010.5
20260904213018 92 277 0.0 0.0 0.00 0.10 0.10 64 1010.5
20260904211516 91 278 0.0 0.0 0.00 0.10 0.10 64 1010.7
20260904210019 92 288 0.0 0.0 0.00 0.10 0.10 64 1011.0
20260904204511 91 299 0.0 0.0 0.00 0.12 0.10 66 1011.3
20260904203010 88 244 0.0 0.0 0.00 0.12 0.10 73 1011.6
20260904201510 87 264 0.0 0.0 0.00 0.12 0.10 76 1011.8
20260904200018 84 260 0.0 0.0 0.00 0.12 0.10 82 1011.9
20260904194526 81 308 0.0 0.0 0.00 0.12 0.10 86 1012.0
20260904193010 80 308 0.0 0.0 0.00 0.12 0.10 92 1011.9
20260904191514 79 308 0.0 0.0 0.00 0.12 0.10 95 1012.3
20260904190008 78 308 0.0 0.0 0.00 0.12 0.10 95 1012.6
20260904184507 77 308 0.0 0.0 0.00 0.22 0.10 94 1013.0
20260904183007 76 308 0.0 2.0 0.04 0.22 0.10 94 1013.0
20260904181506 76 308 0.0 2.0 0.10 0.22 0.10 94 1013.4
20260904180006 74 309 1.0 3.0 0.10 0.22 0.10 92 1013.6
20260904174506 74 283 2.0 9.0 0.10 0.22 0.10 90 1013.4
20260904173102 78 228 4.0 11.0 0.06 0.18 0.06 80 1013.9
20260904171604 85 165 0.0 0.0 0.00 0.12 0.00 72 1014.1
20260904170056 90 161 0.0 0.0 0.00 0.12 0.00 76 1013.5
20260904164552 90 88 0.0 0.0 0.00 0.12 0.00 73 1013.1
20260904163103 90 89 0.0 0.0 0.00 0.12 0.00 72 1013.2
20260904161547 90 250 0.0 0.0 0.00 0.12 0.00 73 1013.0
20260904160044 89 36 0.0 0.0 0.00 0.12 0.00 77 1012.8
20260904154542 88 35 0.0 0.0 0.00 0.12 0.00 79 1012.8
20260904153045 87 26 0.0 0.0 0.00 0.12 0.00 81 1012.8
20260904151536 86 29 0.0 0.0 0.00 0.12 0.00 85 1012.7
20260904150032 85 30 0.0 0.0 0.00 0.12 0.00 91 1012.8
20260904144525 82 30 0.0 0.0 0.00 0.12 0.00 94 1012.8
20260904143024 81 30 0.0 0.0 0.00 0.12 0.00 96 1012.8
20260904141520 81 30 0.0 0.0 0.00 0.12 0.00 97 1012.7
20260904140018 80 30 0.0 0.0 0.00 0.12 0.00 97 1012.6
20260904134515 80 30 0.0 0.0 0.00 0.12 0.00 97 1012.5
20260904133015 80 30 0.0 0.0 0.00 0.12 0.00 97 1012.6
20260904131512 79 30 0.0 0.0 0.00 0.12 0.00 97 1012.5
20260904130011 79 30 0.0 0.0 0.00 0.12 0.00 97 1012.4
20260904124508 79 30 0.0 0.0 0.00 0.12 0.00 97 1012.1
20260904123007 79 30 0.0 0.0 0.00 0.12 0.00 97 1011.8
20260904121505 79 30 0.0 0.0 0.00 0.12 0.00 97 1011.6
20260904120005 79 30 0.0 0.0 0.00 0.12 0.00 97 1011.5
20260904114600 79 30 0.0 0.0 0.00 0.12 0.00 97 1011.5